Weather Roundup
Issued by NWS Springfield, MO

Home | Current Version | Previous Version | Text Only | Print | Product List | Glossary On
Versions: 1 2 3 4 5 6 7 8 9 10 11 12 13 14 15 16 17 18 19 20 21 22 23 24 25 26 27 28 29 30 31 32 33 34 35 36 37 38 39 40 41 42 43 44 45 46 47 48 49 50
000
NZUS99 KSGF 310407
HRRSGF

HOURLY WEATHER
NATIONAL WEATHER SERVICE SPRINGFIELD MO
1000 PM CST FRI JAN 30 2015

......SGF CWA......

CITY           SKY/WX    TMP DP  RH WIND       PRES   REMARKS
SPRINGFIELD    CLOUDY    38  22  52 S7        30.35F WCI  33
JOPLIN         CLOUDY    37  27  67 CALM      30.37S
WEST PLAINS    MOCLDY    33  19  56 S3        30.39F
ROLLA          CLOUDY    30  21  69 CALM      30.37F
OSAGE BEACH    CLOUDY    34  16  47 E3        30.39S
BRANSON        CLOUDY    39  19  45 SE6       30.38S WCI  35

......SURROUNDING SGF CWA......

CITY           SKY/WX    TMP DP  RH WIND       PRES   REMARKS
CHANUTE        CLOUDY    38  26  62 CALM      30.36F
PARSONS        CLOUDY    38  28  67 CALM      30.38F
COFFEYVILLE    CLOUDY    38  28  67 NE3       30.37F
EMPORIA        CLOUDY    37  24  59 S5        30.34F WCI  33
GROVE OK       MOCLDY    41  30  65 CALM      30.38S
ROGERS AR      CLOUDY    41  22  46 SE7       30.36F
SILOAM SPRINGS MOCLDY    39  19  45 SE6       30.37F WCI  35
HARRISON AR    CLOUDY    37  23  56 SE7       30.37F WCI  32
NEAR YELLVILLE CLOUDY    34  21  60 CALM      30.40S

......KANSAS AND MISSOURI......

CITY           SKY/WX    TMP DP  RH WIND       PRES   REMARKS
KANSAS CTY INT CLOUDY    33  23  66 S9        30.35F WCI  25
DOWNTOWN KC    CLOUDY    36  21  54 S5        30.37S WCI  32
COLUMBIA       CLOUDY    30  18  60 SE6       30.39S WCI  24
SEDALIA        CLOUDY    32  21  64 SE3       30.39S
ST JOSEPH      CLOUDY    30  22  72 SE6       30.36F WCI  24
ST LOUIS       MOCLDY    33  20  58 SE6       30.42F WCI  28
SPIRIT OF STL  PTCLDY    23  18  81 CALM      30.41F
KIRKSVILLE     MOCLDY    26  19  74 SW7       30.36F WCI  18
WICHITA        LGT RAIN  39  28  64 SW5       30.33S
TOPEKA         CLOUDY    39  24  55 S5        30.36F
OLATHE         CLOUDY    34  21  59 S3        30.35F

......TENNESSEE......

CITY           SKY/WX    TMP DP  RH WIND       PRES   REMARKS
MEMPHIS        PTCLDY    39  24  55 NE6       30.42F WCI  35
NASHVILLE      CLEAR     33  20  58 N7        30.45R WCI  27

......ARKANSAS.......

CITY           SKY/WX    TMP DP  RH WIND       PRES   REMARKS
FAYETTEVILLE   MOCLDY    36  29  75 S5        30.37F WCI  32
FT SMITH       CLOUDY    44  28  53 NE5       30.40S
LITTLE ROCK    MOCLDY    39  26  59 NE3       30.45S

......OKLAHOMA.......

CITY           SKY/WX    TMP DP  RH WIND       PRES   REMARKS
TULSA          CLOUDY    43  25  49 E3        30.36F
PONCA CITY     CLOUDY    43  22  43 SE5       30.35S
MCALESTER      CLOUDY    46  31  55 E5        30.36F
OKLAHOMA CITY  CLOUDY    44  24  45 E7        30.32F

......IOWA............

CITY           SKY/WX    TMP DP  RH WIND       PRES   REMARKS
DES MOINES     MOCLDY    28  15  58 S7        30.30F WCI  21
QUAD CITIES    PTCLDY    22  16  78 CALM      30.36F

......ILLINOIS........

CITY           SKY/WX    TMP DP  RH WIND       PRES   REMARKS
QUINCY         PTCLDY    27  17  66 S5        30.38F WCI  22
CHICAGO        PTCLDY    21  13  71 SW3       30.37F



USA.gov is the U.S. government's official web portal to all federal, state and local government web resources and services.